GW0587 Weather Reports


Display with metric or nautical units.
time (UTC)temp
F
wind
direction
speed
MPH
gust
MPH
rain 1hr
in
rain 24hr
in
rain mn
in
humidity
%
barometer
mb
20260902231554 96 0 0.0 0.0 0.00 0.00 0.00 49 1015.1
20260902230049 97 0 0.0 3.0 0.00 0.00 0.00 47 1015.0
20260902224557 97 0 0.0 3.0 0.00 0.00 0.00 48 1014.9
20260902223054 97 0 0.0 3.0 0.00 0.00 0.00 46 1015.2
20260902221609 98 0 1.0 6.0 0.00 0.00 0.00 46 1015.3
20260902220056 98 0 0.0 2.0 0.00 0.00 0.00 44 1015.3
20260902214556 98 0 0.0 5.0 0.00 0.00 0.00 43 1015.3
20260902213056 98 286 1.0 4.0 0.00 0.00 0.00 44 1015.4
20260902211556 98 302 1.0 8.0 0.00 0.00 0.00 43 1015.4
20260902210100 98 244 0.0 5.0 0.00 0.00 0.00 45 1015.5
20260902204607 99 0 1.0 4.0 0.00 0.00 0.00 42 1015.7
20260902203056 99 0 0.0 7.0 0.00 0.00 0.00 41 1015.8
20260902201601 99 111 0.0 4.0 0.00 0.00 0.00 42 1016.0
20260902200058 98 109 1.0 8.0 0.00 0.00 0.00 44 1016.1
20260902194559 97 0 1.0 4.0 0.00 0.00 0.00 47 1016.3
20260902193055 98 248 1.0 4.0 0.00 0.00 0.00 46 1016.6
20260902191600 99 0 0.0 3.0 0.00 0.00 0.00 45 1016.8
20260902190050 99 249 1.0 5.0 0.00 0.00 0.00 44 1017.0
20260902184602 99 192 0.0 5.0 0.00 0.00 0.00 44 1017.0
20260902183134 101 158 1.0 6.0 0.00 0.00 0.00 42 1017.4
20260902181559 99 0 0.0 4.0 0.00 0.00 0.00 44 1017.4
20260902180054 99 110 1.0 5.0 0.00 0.00 0.00 44 1017.6
20260902174558 98 126 1.0 7.0 0.00 0.00 0.00 46 1017.9
20260902173101 97 133 2.0 7.0 0.00 0.00 0.00 47 1018.2
20260902171615 98 80 0.0 6.0 0.00 0.00 0.00 47 1018.3
20260902170049 97 78 2.0 10.0 0.00 0.00 0.00 47 1018.5
20260902164600 96 0 1.0 4.0 0.00 0.00 0.00 51 1018.6
20260902163052 95 100 2.0 7.0 0.00 0.00 0.00 52 1018.7
20260902161550 96 0 0.0 4.0 0.00 0.00 0.00 52 1019.2
20260902160051 94 5 1.0 4.0 0.00 0.00 0.00 56 1019.1
20260902154554 93 17 2.0 5.0 0.00 0.00 0.00 56 1018.9
20260902153052 94 0 1.0 3.0 0.00 0.00 0.00 56 1019.1
20260902151548 93 55 2.0 4.0 0.00 0.00 0.00 56 1019.1
20260902150047 93 0 1.0 4.0 0.00 0.00 0.00 58 1019.3
20260902144603 93 0 1.0 3.0 0.00 0.00 0.00 58 1019.2
20260902143054 92 0 0.0 2.0 0.00 0.00 0.00 59 1019.1
20260902141559 90 0 0.0 1.0 0.00 0.00 0.00 62 1019.3
20260902140047 89 153 0.0 4.0 0.00 0.00 0.00 64 1019.3
20260902134555 88 0 0.0 0.0 0.00 0.00 0.00 66 1019.3
20260902133049 87 0 0.0 0.0 0.00 0.00 0.00 67 1019.3
20260902131606 85 0 0.0 0.0 0.00 0.00 0.00 70 1019.3
20260902130056 83 0 0.0 0.0 0.00 0.00 0.00 73 1019.2
20260902124556 81 0 0.0 0.0 0.00 0.00 0.00 77 1019.0
20260902123048 79 0 0.0 0.0 0.00 0.00 0.00 80 1018.9
20260902121549 77 0 0.0 0.0 0.00 0.00 0.00 82 1018.9
20260902120049 76 0 0.0 0.0 0.00 0.00 0.00 82 1018.7
20260902114611 76 0 0.0 0.0 0.00 0.00 0.00 82 1018.5
20260902113051 76 0 0.0 0.0 0.00 0.00 0.00 81 1018.4
20260902111547 77 0 0.0 0.0 0.00 0.00 0.00 81 1018.2
20260902110059 77 0 0.0 0.0 0.00 0.00 0.00 80 1018.1
20260902104558 77 0 0.0 0.0 0.00 0.00 0.00 80 1018.0
20260902103101 77 0 0.0 0.0 0.00 0.00 0.00 79 1018.0
20260902101549 78 0 0.0 0.0 0.00 0.00 0.00 79 1017.8
20260902100046 78 0 0.0 0.0 0.00 0.00 0.00 78 1017.7
20260902094553 78 0 0.0 0.0 0.00 0.00 0.00 78 1017.5
20260902093051 78 0 0.0 0.0 0.00 0.00 0.00 78 1017.6
20260902091601 78 0 0.0 0.0 0.00 0.00 0.00 77 1017.3
20260902090052 78 0 0.0 0.0 0.00 0.00 0.00 77 1017.4
20260902084548 79 0 0.0 0.0 0.00 0.00 0.00 77 1017.5
20260902083055 79 0 0.0 0.0 0.00 0.00 0.00 76 1017.3
20260902081557 80 0 0.0 0.0 0.00 0.00 0.00 76 1017.4
20260902080053 80 0 0.0 0.0 0.00 0.00 0.00 75 1017.4
20260902074559 81 0 0.0 0.0 0.00 0.00 0.00 74 1017.5
20260902073056 81 0 0.0 0.0 0.00 0.00 0.00 73 1017.4
20260902071551 81 0 0.0 0.0 0.00 0.00 0.00 73 1017.3
20260902070105 81 0 0.0 0.0 0.00 0.00 0.00 73 1017.5
20260902064549 81 0 0.0 0.0 0.00 0.00 0.00 73 1017.5
20260902063106 81 0 0.0 0.0 0.00 0.00 0.00 73 1017.5
20260902061552 81 0 0.0 0.0 0.00 0.00 0.00 73 1017.5
20260902060106 81 0 0.0 0.0 0.00 0.00 0.00 73 1017.6
20260902054548 82 0 0.0 0.0 0.00 0.00 0.00 73 1017.6
20260902053056 82 0 0.0 0.0 0.00 0.00 0.00 73 1017.2
20260902051552 82 0 0.0 0.0 0.00 0.00 0.00 72 1017.3
20260902050050 82 0 0.0 0.0 0.00 0.00 0.00 71 1017.1
20260902044548 83 0 0.0 0.0 0.00 0.00 0.00 71 1017.1
20260902043057 83 0 0.0 0.0 0.00 0.00 0.00 71 1017.0
20260902041605 84 0 0.0 0.0 0.00 0.00 0.00 69 1017.0
20260902040052 84 0 0.0 0.0 0.00 0.00 0.00 69 1017.0
20260902034547 85 0 0.0 0.0 0.00 0.00 0.00 67 1017.1
20260902033101 84 0 0.0 0.0 0.00 0.00 0.00 68 1017.1
20260902031555 84 0 0.0 0.0 0.00 0.00 0.00 68 1017.1
20260902030049 84 0 0.0 0.0 0.00 0.00 0.00 68 1017.0
20260902024547 85 0 0.0 0.0 0.00 0.00 0.00 67 1016.8
20260902023056 85 0 0.0 0.0 0.00 0.00 0.00 67 1016.7
20260902021553 85 0 0.0 0.0 0.00 0.00 0.00 67 1016.5
20260902020101 86 0 0.0 0.0 0.00 0.00 0.00 66 1016.5
20260902014551 86 0 0.0 0.0 0.00 0.00 0.00 65 1016.3
20260902013055 87 0 0.0 0.0 0.00 0.00 0.00 63 1016.5
20260902011552 88 0 0.0 0.0 0.00 0.00 0.00 61 1016.2
20260902010047 89 0 0.0 0.0 0.00 0.00 0.00 60 1016.2
20260902004548 90 0 0.0 0.0 0.00 0.00 0.00 58 1016.1
20260902003058 91 0 0.0 1.0 0.00 0.00 0.00 55 1016.1
20260902001557 93 0 0.0 1.0 0.00 0.00 0.00 53 1015.9
20260902000115 94 0 0.0 4.0 0.00 0.00 0.00 49 1016.0
20260901234547 95 0 0.0 5.0 0.00 0.00 0.00 47 1016.1
20260901233055 95 0 0.0 2.0 0.00 0.00 0.00 46 1016.1